QPF
0.00 0.00 0.00 0.00 0.00 0.00 0.01 0.01 0.01 0.00 0.00 0.00 0.00 0.00 0.00 0.00 0.00 0.01 0.01 0.01 0.01 0.02
0.00 0.00 0.00 0.00 0.00 0.00 0.00 0.01 0.01 0.01 0.00 0.00 0.00 0.00 0.00 0.00 0.00 0.00 0.01 0.02 0.02 0.03
0.00 0.00 0.00 0.00 0.00 0.00 0.00 0.00 0.00 0.00 0.00 0.00 0.00 0.00 0.00 0.00 0.00 0.00 0.00 0.00 0.00 0.00
0.00 0.00 0.00 0.00 0.00 0.00 0.00 0.00 0.00 0.00 0.00 0.00 0.00 0.00 0.00 0.00 0.00 0.00 0.00 0.00 0.00 0.00
0.00 0.00 0.00 0.00 0.00 0.00 0.00 0.00 0.00 0.00 0.00 0.00 0.00 0.00 0.00 0.00 0.00 0.00 0.00 0.00 0.00 0.00
0.00 0.00 0.00 0.00 0.00 0.00 0.00 0.00 0.00 0.00 0.00 0.00 0.00 0.00 0.00 0.00 0.00 0.00 0.00 0.00 0.00 0.00
0.00 0.00 0.00 0.00 0.00 0.00 0.00 0.00 0.00 0.00 0.00 0.00 0.00 0.00 0.00 0.00 0.00 0.00 0.00 0.00 0.00 0.00
0.00 0.00 0.00 0.00 0.00 0.00 0.00 0.00 0.00 0.00 0.00 0.00 0.00 0.00 0.00 0.00 0.00 0.00 0.00 0.00 0.00 0.00
0.00 0.00 0.00 0.00 0.00 0.00 0.00 0.00 0.00 0.00 0.00 0.00 0.00 0.00 0.00 0.00 0.00 0.00 0.00 0.00 0.00 0.00
0.00 0.00 0.00 0.00 0.00 0.00 0.00 0.00 0.00 0.00 0.00 0.00 0.00 0.00 0.00 0.00 0.00 0.00 0.00 0.00 0.00 0.00
0.00 0.00 0.00 0.00 0.00 0.00 0.00 0.00 0.00 0.00 0.00 0.00 0.00 0.00 0.00 0.00 0.00 0.00 0.00 0.00 0.00 0.00
0.00 0.00 0.00 0.00 0.00 0.00 0.00 0.00 0.00 0.00 0.00 0.00 0.00 0.00 0.00 0.00 0.00 0.00 0.00 0.00 0.00 0.00
0.00 0.00 0.00 0.00 0.00 0.00 0.00 0.00 0.00 0.00 0.00 0.00 0.00 0.00 0.00 0.00 0.00 0.00 0.00 0.00 0.00 0.00
0.00 0.00 0.00 0.00 0.00 0.00 0.00 0.00 0.00 0.00 0.00 0.00 0.00 0.00 0.00 0.00 0.00 0.00 0.00 0.00 0.00 0.00
MSLP
1022.30 1021.99 1021.49 1021.31 1021.14 1020.53 1019.67 1018.88 1018.11 1017.31 1016.50 1015.53 1014.47 1013.00 1011.87 1010.88 1009.84 1008.74 1007.88 1006.26 1005.61 1004.88
1022.93 1022.62 1022.19 1022.04 1021.62 1021.03 1020.30 1019.38 1018.66 1017.93 1017.23 1016.17 1014.89 1013.63 1012.49 1011.53 1010.63 1009.65 1008.28 1007.00 1005.79 1004.95
1023.38 1023.17 1022.97 1022.59 1022.11 1021.60 1020.65 1019.83 1019.21 1018.56 1017.99 1017.05 1016.07 1014.84 1013.81 1013.08 1011.89 1010.91 1009.44 1008.42 1007.45 1006.30
1024.09 1023.63 1023.52 1023.10 1022.87 1022.31 1021.43 1020.82 1020.14 1019.60 1018.78 1017.95 1017.12 1016.14 1015.29 1014.55 1013.14 1012.29 1010.95 1009.65 1008.96 1008.18
1024.69 1024.53 1024.09 1023.96 1023.64 1023.24 1022.53 1021.89 1021.18 1020.53 1019.96 1019.00 1018.17 1017.27 1016.17 1015.46 1014.62 1013.83 1012.32 1011.37 1010.54 1009.99
1024.67 1024.28 1024.45 1024.06 1023.61 1023.36 1022.93 1022.41 1022.09 1021.37 1020.61 1020.01 1019.26 1018.06 1017.81 1017.39 1016.50 1015.31 1013.83 1013.21 1011.80 1012.14
1024.82 1023.74 1023.94 1023.99 1023.39 1022.88 1022.76 1022.53 1022.32 1022.01 1021.51 1021.08 1020.46 1019.49 1019.67 1018.72 1017.62 1016.59 1015.55 1014.59 1014.43 1013.83
1024.15 1024.26 1024.06 1023.82 1023.43 1022.94 1022.69 1022.59 1022.33 1022.34 1022.60 1022.35 1021.72 1020.92 1020.62 1019.76 1019.01 1017.97 1017.12 1016.71 1015.96 1015.18
1024.21 1024.36 1024.52 1024.05 1023.84 1023.57 1023.25 1023.17 1022.93 1022.80 1022.97 1022.98 1022.63 1021.95 1021.06 1020.75 1020.14 1019.42 1019.06 1018.57 1018.34 1017.62
1024.41 1024.53 1024.56 1024.40 1024.30 1024.28 1024.10 1024.11 1023.96 1023.78 1023.59 1023.78 1023.71 1022.80 1021.95 1021.28 1021.11 1020.34 1020.36 1020.11 1019.58 1019.12
1024.89 1024.98 1025.01 1024.87 1024.75 1024.95 1025.02 1024.93 1024.99 1025.04 1024.76 1024.68 1024.81 1023.99 1022.54 1021.93 1021.73 1021.43 1021.53 1021.63 1021.19 1020.93
1025.73 1025.79 1025.66 1025.57 1025.66 1025.59 1025.75 1025.94 1025.95 1025.91 1025.87 1025.51 1025.51 1025.44 1024.07 1022.64 1022.45 1022.19 1022.65 1022.98 1022.88 1022.31
1026.59 1026.73 1026.74 1026.69 1026.54 1026.44 1026.44 1026.40 1026.64 1026.70 1026.63 1026.56 1026.13 1025.84 1025.42 1024.18 1023.59 1023.50 1023.51 1023.89 1023.91 1023.95
1027.10 1027.17 1027.04 1027.06 1027.00 1027.11 1027.12 1027.05 1027.01 1026.93 1027.00 1026.97 1027.14 1026.88 1026.54 1026.27 1025.53 1025.07 1025.01 1024.94 1024.96 1025.09
Thickness
5448 5446 5447 5443 5440 5441 5445 5448 5452 5455 5458 5463 5471 5483 5492 5499 5506 5515 5522 5539 5547 5557
5434 5433 5433 5429 5427 5427 5431 5435 5439 5441 5444 5451 5459 5468 5476 5481 5486 5493 5503 5512 5527 5541
5423 5422 5419 5417 5416 5415 5419 5423 5425 5429 5432 5437 5441 5449 5453 5454 5459 5463 5473 5481 5492 5507
5411 5412 5408 5406 5403 5403 5406 5408 5412 5412 5416 5421 5425 5427 5427 5428 5435 5438 5446 5454 5459 5471
5400 5397 5397 5392 5390 5389 5390 5392 5396 5399 5401 5405 5406 5407 5411 5413 5414 5413 5423 5424 5430 5439
5394 5393 5388 5386 5385 5382 5381 5382 5381 5384 5388 5390 5391 5395 5392 5389 5391 5395 5402 5406 5416 5419
5386 5393 5388 5383 5384 5384 5380 5378 5375 5374 5375 5374 5375 5376 5368 5374 5380 5386 5390 5398 5401 5407
5386 5383 5381 5381 5382 5382 5379 5376 5374 5369 5362 5359 5360 5360 5359 5364 5368 5374 5380 5383 5389 5399
5379 5376 5372 5375 5375 5374 5373 5370 5369 5366 5359 5354 5353 5354 5357 5357 5360 5364 5363 5366 5371 5379
5371 5368 5366 5366 5366 5364 5364 5360 5359 5356 5355 5350 5346 5349 5352 5353 5351 5357 5355 5356 5359 5362
5359 5357 5356 5356 5356 5353 5352 5351 5348 5345 5345 5342 5339 5343 5350 5351 5350 5350 5347 5343 5346 5347
5346 5343 5344 5344 5343 5342 5340 5338 5336 5335 5333 5335 5333 5331 5338 5345 5347 5348 5342 5336 5335 5340
5333 5330 5329 5328 5329 5329 5328 5328 5325 5324 5323 5323 5325 5326 5327 5333 5337 5336 5334 5330 5330 5329
5322 5321 5321 5320 5319 5317 5316 5317 5317 5317 5315 5315 5313 5313 5313 5314 5319 5320 5318 5317 5317 5314